Location: Street
(51.1247°N, 2.7429°W)
Time: 06:49:07
(UTC+01:00)

CAS-6 - Pass Details

Date: 30 March 2023
Orbit: 610 x 632 km, 97.9° (Epoch: 29 May)

Event Time Altitude Azimuth Distance (km) Brightness Sun altitude
Exits shadow 23:38:53 34° 325° (NW) 1,044 ? -31.2°
Drops below altitude 10° 23:41:28 10° 340° (NNW) 2,008 ? -31.4°
Sets 23:43:42 0° 344° (NNW) 2,923 ? -31.5°
